Temperature
3 3 3 3 3 3 3 4 5 6 5 5 4 3 2 1 1 0 -0 -0 -0 -1 -1 -0 -0 0 0 0 0 0 0 -0 -0 -0 -0 -0 -0 -0 -0 -0 -0 -0 -0 -0
2 3 2 2 2 3 3 3 3 4 4 4 3 2 1 1 -0 -0 -1 -1 -1 -1 -1 -1 -0 -0 -0 -0 -0 -0 -0 -0 -0 -1 -1 -1 -1 -1 -0 -0 -1 -1 -1 -1
3 2 1 3 2 2 2 2 3 3 4 2 2 1 1 -0 -1 -1 -1 -1 -1 -1 -1 -1 -1 -1 -1 -1 -1 -1 -1 -1 -1 -1 -1 -1 -1 -1 -1 -1 -1 -1 -1 -1
2 2 3 3 1 1 1 1 1 1 1 1 1 -0 -1 -1 -1 -1 -1 -1 -1 -1 -1 -1 -1 -1 -1 -1 -1 -1 -1 -1 -1 -1 -1 -1 -1 -1 -1 -1 -1 -1 -1 -1
2 3 3 3 1 0 1 1 1 0 0 -0 -1 -1 -0 -1 -1 -1 -1 -1 -1 -1 -1 -1 -1 -1 -1 -2 -2 -2 -2 -2 -2 -2 -1 -2 -2 -2 -2 -2 -2 -2 -2 -2
1 3 3 3 0 -1 0 2 0 -1 -1 -1 -1 1 1 -1 -1 -1 -2 -2 -2 -2 -2 -2 -2 -2 -2 -2 -2 -2 -2 -2 -2 -2 -2 -2 -2 -2 -2 -2 -2 -2 -2 -2
1 2 3 1 -1 -1 2 2 -1 -2 -2 -2 -1 -1 -1 -2 -2 -2 -2 -2 -2 -2 -2 -2 -2 -2 -2 -2 -3 -3 -3 -3 -3 -3 -3 -3 -2 -2 -2 -2 -2 -3 -3 -3
1 2 2 -1 -1 0 0 -2 -2 -2 -3 -3 -3 -3 -3 -2 -2 -2 -2 -2 -2 -3 -3 -3 -3 -3 -3 -3 -3 -3 -3 -3 -3 -3 -3 -3 -3 -3 -3 -3 -3 -3 -3 -3
0 1 -1 -2 -2 -2 -2 -2 -3 -3 -3 -3 -3 -3 -3 -3 -3 -3 -3 -3 -3 -3 -3 -3 -3 -3 -3 -3 -3 -3 -3 -3 -3 -3 -3 -3 -3 -3 -3 -3 -4 -4 -4 -4
-2 -1 -2 -2 -2 -2 -3 -3 -3 -3 -3 -3 -4 -4 -4 -3 -3 -3 -3 -3 -3 -3 -3 -4 -4 -4 -4 -4 -4 -4 -4 -4 -4 -4 -4 -4 -4 -4 -4 -4 -4 -4 -4 -4
-2 -2 -2 -3 -3 -3 -3 -3 -3 -3 -3 -3 -4 -4 -4 -4 -4 -4 -4 -4 -4 -4 -4 -4 -4 -4 -4 -4 -4 -4 -4 -4 -4 -4 -4 -4 -4 -4 -4 -5 -5 -5 -5 -5
-1 -2 -2 -2 -3 -3 -3 -3 -3 -3 -3 -3 -4 -4 -4 -4 -4 -4 -4 -4 -4 -4 -4 -4 -4 -4 -4 -4 -4 -4 -4 -4 -4 -4 -4 -5 -5 -5 -5 -5 -5 -5 -5 -5
-3 -3 -3 -3 -3 -3 -3 -3 -3 -3 -4 -4 -4 -4 -4 -4 -4 -4 -4 -4 -4 -4 -4 -4 -5 -5 -5 -4 -5 -5 -5 -5 -5 -5 -5 -5 -5 -5 -5 -5 -5 -5 -5 -5
-3 -3 -4 -4 -4 -4 -4 -4 -4 -4 -4 -4 -4 -4 -4 -4 -4 -4 -5 -5 -5 -5 -5 -5 -5 -5 -5 -5 -5 -5 -5 -5 -5 -5 -5 -5 -5 -5 -5 -5 -5 -5 -5 -5
-4 -4 -4 -4 -4 -4 -4 -4 -4 -4 -4 -5 -5 -5 -5 -5 -5 -5 -5 -5 -5 -5 -5 -5 -5 -5 -5 -5 -5 -5 -5 -5 -6 -6 -6 -6 -6 -6 -6 -6 -6 -6 -5 -5
-4 -4 -4 -4 -4 -4 -4 -5 -5 -5 -5 -5 -5 -5 -5 -5 -5 -5 -5 -5 -5 -5 -5 -5 -6 -6 -6 -6 -6 -6 -6 -6 -6 -6 -6 -6 -6 -6 -6 -6 -6 -6 -6 -6
-4 -5 -5 -5 -5 -5 -5 -5 -5 -5 -5 -5 -5 -5 -5 -5 -5 -5 -5 -6 -6 -6 -6 -6 -6 -6 -6 -6 -6 -6 -6 -6 -6 -6 -6 -6 -6 -6 -6 -6 -6 -6 -6 -6
-4 -4 -4 -4 -5 -5 -5 -5 -5 -5 -5 -5 -5 -5 -5 -5 -5 -5 -6 -6 -6 -6 -6 -6 -6 -6 -6 -6 -6 -6 -6 -6 -6 -6 -6 -6 -6 -6 -7 -7 -7 -7 -7 -7
-4 -5 -5 -5 -5 -5 -5 -5 -5 -5 -5 -5 -5 -5 -5 -6 -6 -6 -6 -6 -6 -6 -6 -6 -6 -6 -6 -6 -6 -6 -6 -7 -7 -7 -7 -7 -7 -7 -7 -7 -7 -7 -7 -7
-5 -5 -5 -5 -5 -5 -5 -5 -5 -5 -5 -5 -5 -6 -6 -6 -6 -6 -6 -6 -6 -6 -7 -7 -7 -6 -6 -6 -7 -7 -7 -7 -7 -7 -7 -7 -7 -7 -7 -7 -7 -7 -7 -7
-5 -5 -5 -5 -5 -5 -5 -5 -5 -5 -5 -5 -6 -6 -6 -6 -6 -6 -6 -6 -6 -7 -7 -7 -7 -7 -7 -7 -7 -7 -7 -7 -7 -7 -7 -7 -7 -7 -7 -7 -7 -7 -7 -7
-5 -5 -5 -5 -5 -5 -5 -5 -5 -5 -5 -6 -6 -6 -6 -6 -6 -7 -7 -7 -7 -7 -7 -7 -7 -7 -7 -7 -7 -7 -7 -7 -7 -7 -7 -7 -7 -7 -7 -7 -7 -7 -7 -7
-5 -5 -5 -5 -5 -5 -5 -5 -6 -6 -6 -6 -6 -6 -6 -7 -7 -7 -7 -7 -7 -7 -7 -7 -7 -7 -7 -7 -7 -7 -7 -7 -7 -7 -7 -7 -7 -7 -7 -7 -7 -7 -7 -7
-5 -5 -5 -5 -5 -5 -6 -6 -6 -6 -6 -6 -6 -7 -7 -7 -7 -7 -7 -7 -7 -7 -7 -7 -7 -7 -7 -7 -7 -7 -7 -7 -7 -7 -7 -8 -8 -8 -8 -8 -8 -8 -8 -8
-5 -5 -5 -5 -6 -6 -6 -6 -6 -6 -6 -7 -7 -7 -7 -7 -7 -7 -7 -7 -7 -7 -7 -7 -7 -7 -7 -7 -7 -7 -7 -7 -7 -8 -8 -8 -8 -8 -8 -8 -8 -8 -8 -8
-6 -6 -6 -6 -6 -6 -6 -6 -6 -7 -7 -7 -7 -7 -7 -7 -7 -7 -7 -7 -7 -7 -7 -7 -7 -7 -7 -7 -8 -8 -8 -8 -8 -8 -8 -8 -8 -8 -8 -8 -8 -8 -8 -8
-6 -6 -6 -6 -6 -7 -7 -7 -7 -7 -7 -7 -7 -7 -7 -7 -7 -7 -8 -8 -8 -8 -8 -8 -8 -8 -8 -8 -8 -8 -8 -8 -8 -8 -8 -8 -8 -8 -8 -8 -8 -8 -8 -8
Wind_Speed
7 6 4 6 7 8 10 10 9 10 11 11 9 7 6 5 5 4 5 5 5 5 4 4 4 4 3 3 3 2 2 2 2 3 2 2 2 3 3 3 3 3 4 4
5 5 5 7 9 10 11 12 12 12 13 9 7 6 5 5 5 5 5 5 5 5 4 4 4 4 4 3 3 3 2 2 2 2 2 2 2 2 2 2 2 3 4 4
5 4 3 7 8 9 8 8 8 11 10 7 6 7 7 6 5 6 6 6 5 5 5 5 4 4 4 4 3 3 2 2 2 2 2 2 2 2 2 2 2 3 3 4
3 2 6 2 1 4 7 7 8 8 8 7 7 7 7 6 5 6 6 6 6 5 5 4 4 4 3 3 3 2 2 2 2 2 2 1 1 2 2 2 2 3 3 3
2 4 7 4 2 2 5 5 5 8 7 6 5 5 4 3 4 5 6 6 5 5 4 4 4 3 2 2 2 2 2 3 3 2 2 1 1 2 2 2 2 3 3 2
3 5 5 2 1 0 3 5 2 4 6 5 4 5 5 4 6 6 5 4 4 4 3 3 3 2 2 2 2 3 3 3 3 2 2 2 2 2 2 2 2 2 2 2
5 6 5 2 0 2 3 3 2 3 5 5 5 6 6 7 6 5 4 4 3 3 2 2 2 1 1 2 3 3 3 3 2 2 2 2 2 2 2 2 2 2 3 3
4 5 5 1 2 3 3 4 3 4 4 5 6 6 5 5 5 4 4 3 2 2 2 2 1 1 2 2 3 3 3 3 3 3 2 2 2 2 2 2 2 2 2 3
5 4 2 2 2 2 3 4 4 4 5 5 5 5 5 5 4 3 3 3 2 2 2 2 1 2 2 3 2 2 2 3 3 3 2 2 2 2 2 2 2 2 2 2
5 6 5 5 4 4 4 5 6 5 4 4 5 5 4 4 3 3 2 2 2 1 1 2 2 2 2 2 2 2 2 2 2 2 2 2 2 2 2 2 2 2 2 3
6 6 6 5 5 5 6 6 6 5 4 4 4 4 4 3 3 2 2 2 2 2 2 2 2 2 3 2 2 1 2 2 2 2 2 2 2 2 2 2 2 2 3 3
5 4 4 6 6 6 6 6 5 5 5 3 3 4 3 3 3 2 2 2 2 2 2 2 2 2 3 2 1 1 1 1 2 2 2 2 2 2 3 3 4 4 4 4
6 5 6 7 6 5 5 5 5 4 4 3 3 3 3 3 2 2 2 2 2 2 2 2 2 2 2 2 1 1 1 1 2 2 2 2 2 2 3 3 3 4 5 5
6 5 6 5 5 5 4 4 3 3 2 2 2 1 1 1 1 2 2 2 2 2 2 2 2 2 2 2 1 1 1 1 2 1 2 2 2 2 2 3 3 3 4 6
5 5 5 4 4 3 2 2 1 1 1 1 1 0 1 1 1 2 2 1 1 1 1 2 2 2 2 1 1 1 1 1 1 1 1 1 2 2 2 3 3 3 4 4
4 3 3 3 3 2 1 1 1 2 2 2 1 1 2 2 1 1 1 0 1 1 2 2 3 3 2 1 1 1 1 1 2 1 1 1 2 2 2 2 3 3 4 4
3 3 3 3 3 3 3 3 3 3 2 2 2 2 1 1 0 1 1 1 1 2 2 2 3 3 2 1 1 1 1 1 1 1 1 1 2 2 2 2 3 3 3 4
5 5 4 4 4 4 4 3 3 3 2 2 1 1 1 1 1 2 2 2 1 1 2 2 2 2 2 1 1 1 1 1 1 1 1 1 2 2 2 2 2 3 3 4
3 3 3 3 4 4 4 3 3 2 2 1 1 1 2 2 1 1 1 1 1 2 3 3 2 2 1 1 1 1 1 1 1 1 1 2 2 2 2 2 2 3 3 3
2 1 2 2 2 2 3 2 2 1 1 1 1 1 1 1 1 1 1 1 2 2 2 2 2 1 1 1 1 1 1 1 1 1 1 1 1 2 2 2 2 3 3 3
1 1 1 1 1 1 1 2 1 1 1 1 2 2 2 1 1 1 1 1 2 2 2 2 1 1 1 1 1 1 1 1 1 1 1 2 2 2 2 2 2 3 3 3
2 1 1 1 1 1 1 1 1 1 1 1 1 1 1 1 1 1 2 2 2 3 2 1 1 1 1 1 0 1 1 1 1 1 2 2 2 2 2 3 3 3 3 3
2 2 1 1 1 1 1 0 1 1 1 1 1 2 2 2 1 1 2 2 2 3 2 1 1 1 1 1 0 1 1 1 1 1 2 2 2 2 3 3 3 3 3 3
1 1 1 1 1 1 0 1 1 1 1 1 2 2 2 1 1 2 2 2 3 2 1 1 2 1 1 1 1 1 1 1 2 2 2 2 2 2 3 3 3 3 3 4
1 1 1 1 1 1 1 1 1 0 0 1 1 1 1 1 1 2 2 2 2 1 1 2 2 2 1 1 1 1 1 2 2 2 2 2 2 3 3 3 3 3 3 3
2 2 2 2 2 1 1 1 1 1 0 1 1 1 1 1 1 1 1 1 1 1 1 1 2 2 1 1 2 2 2 2 2 2 2 2 3 3 3 3 4 4 3 4
1 1 1 1 1 1 1 1 1 1 1 1 1 1 1 1 1 1 1 1 1 1 1 1 1 2 2 2 2 2 2 2 2 2 2 2 3 3 3 4 4 4 4 4
Wind_Direction
258 266 250 246 243 223 218 231 242 256 262 274 277 280 279 276 276 282 287 294 299 301 306 311 311 309 304 309 311 307 303 305 300 300 297 293 289 288 289 276 263 259 255 253
259 251 251 263 258 243 240 242 246 259 269 282 285 284 280 275 270 275 282 290 294 295 300 305 306 302 300 302 304 300 292 294 301 300 297 295 297 297 299 296 282 269 261 258
260 274 262 261 251 235 233 234 234 247 262 286 287 282 277 278 273 278 284 290 289 289 292 296 300 297 293 297 299 294 296 306 308 305 302 303 312 316 320 315 304 287 276 265
259 249 247 270 76 230 233 246 239 252 272 280 284 288 282 273 267 279 291 292 290 288 295 299 303 301 302 304 306 309 319 319 321 326 337 346 342 340 334 324 316 309 299 288
220 249 268 275 256 224 228 255 243 252 273 299 310 291 278 270 275 283 286 284 283 282 288 294 298 296 297 302 316 331 326 318 322 326 332 337 335 329 321 322 324 317 308 311
218 243 255 300 6 261 211 256 252 248 267 289 297 282 296 315 304 299 291 285 287 288 291 294 301 293 286 307 322 326 322 317 322 326 325 319 314 311 320 323 327 333 334 327
229 242 262 312 1 170 227 297 341 270 271 265 268 283 301 307 306 303 295 296 297 293 297 299 300 283 289 316 317 321 326 335 334 332 329 319 317 323 332 340 342 343 342 339
212 229 255 102 146 211 284 319 291 284 279 275 287 295 295 299 305 306 308 311 308 304 315 322 314 286 296 311 319 326 338 350 345 343 344 344 338 337 339 340 339 341 342 343
222 241 304 195 232 275 299 289 295 296 293 286 289 291 294 297 300 299 305 312 312 304 325 337 324 307 306 320 329 337 347 348 347 350 352 353 347 342 341 338 335 333 333 336
258 266 275 268 270 287 295 292 300 301 295 284 284 287 295 294 296 301 304 317 320 316 329 328 327 319 312 315 322 325 332 338 344 346 351 356 356 352 350 338 328 322 323 326
259 277 293 270 277 292 296 294 294 297 287 277 276 277 280 280 283 287 289 305 300 289 298 309 320 320 318 315 315 322 329 335 340 340 334 346 357 358 347 345 329 315 312 313
258 267 268 287 292 289 285 286 285 290 290 281 260 260 267 268 272 271 274 295 299 298 305 312 318 323 323 318 307 311 327 336 341 340 339 338 338 354 18 359 359 354 341 323
263 277 277 288 293 295 288 288 285 277 269 277 277 263 259 264 265 264 261 272 282 291 300 307 315 322 324 323 315 304 315 326 332 336 335 334 334 331 336 351 1 0 358 349
266 272 276 281 289 297 296 298 294 284 277 275 280 276 264 273 270 266 269 278 289 296 303 310 315 321 327 329 330 321 328 331 319 323 329 328 328 328 328 330 333 337 346 353
265 264 269 282 290 301 313 314 318 318 326 338 334 267 245 257 273 288 297 301 306 312 315 318 315 322 336 337 332 329 326 320 318 325 326 322 324 325 328 328 328 329 331 340
283 278 263 267 279 293 311 296 275 287 296 301 303 293 284 277 284 303 312 296 259 287 302 304 302 314 325 317 306 309 319 333 325 317 322 326 328 328 328 329 330 333 335 336
262 267 266 269 272 273 264 261 256 257 262 264 276 294 302 310 314 325 329 317 293 284 289 290 298 313 315 300 284 292 308 324 327 319 320 321 322 323 322 324 327 327 328 335
255 255 247 243 248 256 267 269 257 252 253 260 273 259 231 225 256 288 307 323 335 328 314 311 310 314 311 303 289 285 292 305 309 311 315 320 317 315 315 317 322 322 323 329
264 254 250 246 249 246 250 258 256 253 258 233 211 231 246 254 270 290 300 302 305 311 320 321 317 319 315 306 299 276 280 290 300 313 313 314 316 315 314 317 321 324 323 323
293 276 262 262 256 233 239 252 251 253 248 208 200 219 253 279 290 283 267 263 286 300 312 319 316 309 310 307 300 277 272 277 291 304 306 305 309 314 316 315 317 319 319 320
286 284 273 266 277 264 243 235 226 237 250 202 199 221 248 273 271 255 257 291 317 324 324 324 320 305 304 301 272 267 259 276 296 305 306 303 304 309 312 316 316 314 313 314
265 261 265 261 261 286 285 254 219 212 217 218 210 208 230 267 271 270 267 280 306 316 319 314 317 318 329 310 283 272 271 277 285 292 296 298 298 303 309 311 309 309 308 308
263 252 249 249 250 269 294 288 221 207 211 215 211 214 230 252 255 259 289 300 305 314 318 311 321 335 350 332 311 295 292 288 287 287 289 293 293 296 299 300 302 303 304 305
256 253 257 251 183 183 302 324 316 272 248 246 229 225 232 252 267 268 289 294 307 317 329 336 351 359 352 347 326 303 295 293 291 287 286 286 287 288 289 292 295 298 298 299
237 236 219 199 200 229 267 299 331 330 320 295 283 263 253 258 262 286 300 297 309 330 330 332 343 352 352 330 316 304 295 291 290 289 287 287 288 290 290 291 291 291 291 289
228 235 236 237 236 228 222 221 241 263 269 292 312 312 312 314 303 305 310 318 319 330 339 340 337 337 327 314 307 305 301 299 300 298 294 294 294 294 292 292 292 290 289 287
226 224 220 244 228 206 210 215 224 238 240 241 264 278 295 309 304 314 324 325 325 334 331 328 323 320 315 311 306 305 303 302 300 298 296 294 292 291 291 291 291 291 290 287
Height
1481 1481 1481 1480 1480 1480 1480 1474 1470 1464 1465 1464 1467 1468 1469 1469 1468 1468 1467 1466 1465 1464 1462 1461 1459 1458 1457 1456 1455 1454 1453 1452 1451 1451 1450 1449 1449 1448 1448 1447 1447 1447 1447 1447
1481 1480 1480 1479 1476 1476 1475 1474 1471 1468 1466 1466 1467 1468 1467 1467 1466 1466 1465 1464 1462 1461 1460 1458 1457 1455 1455 1454 1453 1452 1451 1449 1449 1448 1447 1446 1446 1445 1445 1444 1444 1444 1444 1443
1472 1478 1479 1471 1470 1471 1470 1470 1470 1466 1464 1466 1466 1466 1465 1464 1464 1463 1462 1461 1460 1459 1458 1456 1455 1454 1453 1452 1451 1450 1448 1447 1446 1445 1444 1443 1443 1443 1442 1442 1442 1441 1440 1440
1475 1477 1468 1465 1470 1469 1469 1468 1468 1467 1465 1466 1465 1464 1463 1462 1462 1461 1460 1459 1458 1457 1456 1454 1453 1452 1451 1450 1449 1447 1446 1445 1444 1443 1442 1442 1442 1441 1441 1440 1439 1439 1438 1437
1475 1468 1461 1464 1468 1470 1468 1465 1466 1466 1465 1465 1464 1462 1460 1460 1460 1459 1458 1457 1456 1455 1454 1452 1451 1450 1449 1448 1447 1445 1444 1443 1443 1442 1441 1441 1440 1440 1439 1439 1438 1437 1436 1435
1474 1466 1460 1461 1468 1468 1469 1462 1463 1464 1463 1463 1463 1459 1457 1458 1457 1456 1455 1454 1454 1453 1452 1450 1449 1449 1447 1446 1445 1444 1443 1442 1442 1441 1440 1440 1439 1438 1438 1437 1436 1435 1434 1433
1471 1466 1460 1465 1467 1468 1464 1459 1463 1462 1462 1461 1460 1459 1457 1455 1454 1454 1453 1452 1452 1451 1450 1448 1448 1447 1446 1445 1444 1443 1442 1441 1440 1440 1439 1438 1438 1437 1436 1435 1435 1434 1432 1432
1470 1465 1463 1466 1467 1466 1463 1462 1461 1460 1460 1459 1458 1456 1455 1453 1452 1451 1451 1450 1450 1449 1447 1447 1446 1446 1445 1444 1443 1442 1441 1440 1439 1438 1438 1437 1436 1436 1435 1434 1433 1432 1431 1430
1467 1464 1464 1464 1464 1464 1463 1462 1460 1459 1458 1457 1455 1454 1453 1452 1451 1450 1449 1449 1448 1447 1446 1446 1445 1444 1443 1443 1442 1441 1440 1439 1438 1438 1437 1436 1435 1434 1433 1432 1432 1431 1430 1429
1468 1463 1463 1463 1463 1462 1461 1460 1459 1457 1456 1455 1453 1452 1451 1450 1449 1449 1448 1447 1446 1446 1445 1444 1444 1443 1442 1441 1441 1440 1439 1438 1438 1437 1436 1435 1434 1433 1432 1431 1431 1430 1429 1429
1465 1463 1462 1460 1460 1460 1459 1458 1456 1455 1454 1453 1451 1450 1449 1448 1448 1447 1447 1446 1445 1445 1444 1443 1442 1442 1441 1440 1440 1439 1438 1438 1437 1436 1435 1434 1433 1432 1431 1431 1430 1429 1428 1428
1459 1460 1460 1458 1457 1457 1456 1454 1453 1452 1450 1450 1449 1448 1447 1447 1447 1446 1446 1445 1444 1443 1443 1442 1441 1441 1440 1440 1439 1439 1438 1437 1436 1435 1434 1433 1432 1432 1431 1430 1429 1428 1427 1426
1458 1457 1457 1456 1455 1454 1452 1451 1450 1449 1448 1447 1447 1446 1446 1445 1445 1445 1444 1444 1443 1442 1442 1441 1441 1440 1439 1439 1439 1438 1437 1436 1435 1434 1433 1433 1432 1430 1429 1429 1428 1427 1426 1425
1455 1455 1454 1453 1452 1451 1450 1449 1448 1447 1446 1446 1445 1445 1444 1444 1443 1443 1443 1443 1442 1441 1441 1440 1440 1439 1439 1438 1438 1437 1436 1436 1435 1434 1433 1432 1431 1430 1429 1427 1427 1426 1425 1424
1452 1452 1452 1450 1449 1448 1448 1447 1446 1445 1444 1444 1444 1443 1443 1442 1442 1441 1441 1441 1441 1440 1440 1439 1439 1439 1438 1437 1437 1436 1436 1435 1434 1433 1432 1431 1430 1429 1428 1427 1426 1424 1423 1423
1449 1449 1448 1447 1447 1446 1446 1445 1444 1443 1443 1442 1442 1442 1441 1441 1441 1440 1440 1440 1439 1439 1438 1438 1438 1437 1437 1436 1436 1435 1435 1434 1433 1432 1431 1430 1429 1428 1427 1426 1425 1424 1422 1421
1446 1445 1445 1445 1444 1444 1444 1443 1443 1442 1441 1441 1441 1440 1440 1440 1440 1440 1439 1439 1438 1438 1437 1437 1437 1436 1436 1435 1435 1434 1433 1433 1432 1431 1430 1429 1428 1427 1426 1425 1424 1423 1421 1420
1444 1444 1443 1443 1442 1442 1442 1442 1441 1441 1440 1440 1440 1439 1439 1439 1438 1438 1438 1438 1437 1437 1436 1436 1435 1435 1434 1434 1433 1433 1432 1431 1431 1430 1429 1428 1427 1426 1425 1424 1423 1422 1421 1420
1442 1441 1441 1441 1441 1440 1440 1440 1439 1439 1439 1439 1438 1438 1438 1438 1437 1437 1437 1437 1436 1435 1435 1435 1434 1433 1433 1432 1432 1431 1431 1430 1429 1429 1428 1427 1426 1425 1424 1423 1422 1421 1420 1418
1440 1440 1440 1439 1439 1439 1438 1438 1438 1438 1437 1437 1437 1437 1437 1437 1436 1436 1436 1436 1435 1435 1434 1433 1433 1432 1432 1431 1431 1430 1429 1429 1428 1427 1427 1426 1425 1424 1423 1422 1421 1420 1419 1417
1439 1438 1438 1438 1437 1437 1437 1436 1436 1436 1436 1436 1436 1435 1435 1435 1435 1435 1435 1434 1434 1434 1433 1432 1432 1431 1430 1430 1429 1429 1428 1427 1427 1426 1425 1425 1424 1423 1422 1421 1420 1419 1418 1416
1437 1437 1437 1436 1436 1436 1435 1435 1435 1435 1435 1435 1435 1434 1434 1434 1434 1434 1434 1433 1433 1432 1432 1431 1430 1430 1429 1428 1428 1427 1427 1426 1425 1425 1424 1423 1423 1422 1421 1420 1419 1418 1416 1415
1436 1436 1436 1435 1435 1434 1434 1434 1434 1434 1433 1433 1433 1433 1433 1433 1433 1432 1432 1432 1431 1431 1430 1430 1429 1428 1428 1427 1427 1426 1425 1425 1424 1423 1423 1422 1421 1420 1419 1418 1417 1416 1415 1414
1435 1435 1435 1434 1434 1433 1433 1433 1433 1433 1432 1432 1432 1432 1432 1431 1431 1431 1431 1431 1430 1430 1429 1429 1428 1427 1427 1426 1425 1425 1424 1423 1423 1422 1421 1420 1420 1419 1418 1417 1415 1414 1413 1412
1434 1433 1433 1433 1432 1432 1432 1431 1431 1431 1431 1431 1431 1431 1431 1430 1430 1430 1430 1429 1429 1428 1428 1427 1427 1426 1426 1425 1424 1423 1423 1422 1421 1421 1420 1419 1418 1417 1416 1415 1413 1412 1411 1410
1432 1432 1432 1432 1431 1431 1430 1430 1430 1430 1430 1430 1430 1429 1429 1429 1429 1429 1428 1428 1428 1427 1427 1426 1425 1425 1424 1423 1423 1422 1421 1421 1420 1419 1418 1417 1416 1415 1414 1413 1411 1410 1409 1408
1431 1430 1430 1430 1430 1430 1429 1429 1429 1429 1429 1428 1428 1428 1428 1428 1428 1428 1427 1427 1426 1426 1425 1425 1424 1423 1423 1422 1421 1421 1420 1419 1418 1417 1416 1415 1414 1413 1412 1411 1409 1408 1407 1406